Regional Weather Roundup
Issued by NWS Sioux Falls, SD

Home | Current Version | Previous Version | Text Only | Print | Product List | Glossary Off
Versions: 1 2 3 4 5 6 7 8 9 10 11 12 13 14 15 16 17 18 19 20 21 22 23 24 25 26 27 28 29 30 31 32 33 34 35 36 37 38 39 40 41 42 43 44 45 46 47 48 49 50

000
ASUS43 KFSD 060102
RWRFSD

WEATHER ROUNDUP FOR SE SOUTH DAKOTA/SW MINNESOTA/NW IOWA
NATIONAL WEATHER SERVICE SIOUX FALLS SD
800 PM CDT SUN JUL 05 2015

NOTE: "FAIR" INDICATES FEW OR NO CLOUDS BELOW 12,000 FEET WITH NO
SIGNIFICANT WEATHER AND OR OBSTRUCTIONS TO VISIBILITY.


SDZ038>040-050-052>070-060200-
SOUTHEAST SOUTH DAKOTA

CITY           SKY/WX    TMP DP  RH WIND       PRES   REMARKS
BROOKINGS      MOSUNNY   82  72  69 S16       29.77F
CHAMBERLAIN    NOT AVBL
HURON          CLOUDY    84  74  71 SE5       29.70F
MADISON        MOCLDY    81  77  89 S12G20    29.77F
MITCHELL       PTSUNNY   86  74  67 S14       29.70F
SIOUX FALLS    PTSUNNY   84  73  69 S15       29.77S
WINNER         FAIR      87  70  56 E14       29.71S
YANKTON        PTSUNNY   82  75  78 SE9       29.73F
$$

MNZ071-072-080-081-089-090-097-098-060200-
SOUTHWEST MINNESOTA

CITY           SKY/WX    TMP DP  RH WIND       PRES   REMARKS
FAIRMONT       PTCLDY    82  66  57 S13       29.82F
JACKSON        PTCLDY    82  70  65 S13G21    29.84R
MARSHALL       MOSUNNY   84  70  61 S14       29.75F
PIPESTONE      MOSUNNY   82  72  69 S13       29.80F
REDWOOD FALLS  PTCLDY    86  71  60 S16       29.76F
TRACY          PTSUNNY   85  72  64 S10       29.78F
WINDOM         PTCLDY    82  68  61 S10G18    29.82S
WORTHINGTON    PTCLDY    82  68  61 S15       29.82R
$$

IAZ001>003-012>014-020>022-031-032-NEZ013-014-SDZ071-060200-
NORTHWEST IOWA

CITY           SKY/WX    TMP DP  RH WIND       PRES   REMARKS
DENISON        PTCLDY    82  72  69 S12G17    29.82S
ESTHERVILLE    PTCLDY    81  70  69 S14G24    29.83F
SIOUX CITY     PTCLDY    86  74  67 SE10      29.77F
SPENCER        CLEAR     84  69  60 S15       29.83R
$$

ABBREVIATIONS USED IN REMARKS
   TC - TEMPERATURE IN CELSIUS
  WCI - WIND CHILL INDEX
   HX - HEAT INDEX
  VSB - VISIBILITY




USA.gov is the U.S. government's official web portal to all federal, state and local government web resources and services.